Time,TemperatureF,DewpointF,PressureIn,WindDirection,WindDirectionDegrees,WindSpeedMPH,WindSpeedGustMPH,Humidity,HourlyPrecipIn,Conditions,Clouds,dailyrainin,SoftwareType,DateUTC
2013-03-10 00:03:00,34.5,22.8,0.00,North,0,0.0,0.0,62,0.00,,,0.00,WUHU21623XXSP,2013-03-10 05:03:00,
2013-03-10 00:08:00,34.3,22.6,0.00,North,0,0.0,0.0,63,0.00,,,0.00,WUHU21623XXSP,2013-03-10 05:08:00,
2013-03-10 00:13:00,34.3,23.0,0.00,North,0,0.0,0.0,63,0.00,,,0.00,WUHU21623XXSP,2013-03-10 05:13:00,
2013-03-10 00:18:00,34.3,23.0,0.00,North,0,0.0,0.0,63,0.00,,,0.00,WUHU21623XXSP,2013-03-10 05:18:00,
2013-03-10 00:23:00,34.3,23.0,0.00,North,0,0.0,0.0,63,0.00,,,0.00,WUHU21623XXSP,2013-03-10 05:23:00,
2013-03-10 00:28:00,34.0,22.6,0.00,North,0,0.0,0.0,63,0.00,,,0.00,WUHU21623XXSP,2013-03-10 05:28:00,
2013-03-10 00:33:00,33.8,22.5,0.00,North,0,0.0,0.0,63,0.00,,,0.00,WUHU21623XXSP,2013-03-10 05:33:00,
2013-03-10 00:38:00,33.6,22.5,0.00,North,0,0.0,0.0,63,0.00,,,0.00,WUHU21623XXSP,2013-03-10 05:38:00,
2013-03-10 00:43:00,33.6,22.3,0.00,North,0,0.0,0.0,63,0.00,,,0.00,WUHU21623XXSP,2013-03-10 05:43:00,
2013-03-10 00:48:00,33.6,22.7,0.00,North,0,0.0,0.0,64,0.00,,,0.00,WUHU21623XXSP,2013-03-10 05:48:00,
2013-03-10 00:53:00,33.4,22.5,0.00,North,0,0.0,0.0,64,0.00,,,0.00,WUHU21623XXSP,2013-03-10 05:53:00,
2013-03-10 00:58:00,33.3,22.5,0.00,North,0,0.0,0.0,64,0.00,,,0.00,WUHU21623XXSP,2013-03-10 05:58:00,
2013-03-10 01:03:00,33.3,22.3,0.00,North,0,0.0,0.0,64,0.00,,,0.00,WUHU21623XXSP,2013-03-10 06:03:00,
2013-03-10 01:08:00,33.1,22.2,0.00,North,0,0.0,0.0,64,0.00,,,0.00,WUHU21623XXSP,2013-03-10 06:08:00,
2013-03-10 01:13:00,32.9,22.0,0.00,North,0,0.0,0.0,64,0.00,,,0.00,WUHU21623XXSP,2013-03-10 06:13:00,
2013-03-10 01:18:00,32.9,22.0,0.00,North,0,0.0,0.0,64,0.00,,,0.00,WUHU21623XXSP,2013-03-10 06:18:00,
2013-03-10 01:23:00,32.7,22.2,0.00,North,0,0.0,0.0,65,0.00,,,0.00,WUHU21623XXSP,2013-03-10 06:23:00,
2013-03-10 01:28:00,32.7,22.2,0.00,North,0,0.0,0.0,65,0.00,,,0.00,WUHU21623XXSP,2013-03-10 06:28:00,
2013-03-10 01:33:00,32.5,22.2,0.00,North,0,0.0,0.0,65,0.00,,,0.00,WUHU21623XXSP,2013-03-10 06:33:00,
2013-03-10 01:38:00,32.5,22.0,0.00,North,0,0.0,0.0,65,0.00,,,0.00,WUHU21623XXSP,2013-03-10 06:38:00,
2013-03-10 01:43:00,32.5,22.0,0.00,North,0,0.0,0.0,65,0.00,,,0.00,WUHU21623XXSP,2013-03-10 06:43:00,
2013-03-10 01:48:00,32.4,22.0,0.00,North,0,0.0,0.0,65,0.00,,,0.00,WUHU21623XXSP,2013-03-10 06:48:00,
2013-03-10 01:53:00,32.4,21.9,0.00,North,0,0.0,0.0,65,0.00,,,0.00,WUHU21623XXSP,2013-03-10 06:53:00,
2013-03-10 01:58:00,32.4,22.2,0.00,North,0,0.0,0.0,66,0.00,,,0.00,WUHU21623XXSP,2013-03-10 06:58:00,
2013-03-10 03:03:00,32.4,22.2,0.00,North,0,0.0,0.0,66,0.00,,,0.00,WUHU21623XXSP,2013-03-10 07:03:00,
2013-03-10 03:08:00,32.2,22.1,0.00,North,0,0.0,0.0,66,0.00,,,0.00,WUHU21623XXSP,2013-03-10 07:08:00,
2013-03-10 03:13:00,31.8,21.7,0.00,North,0,0.0,0.0,66,0.00,,,0.00,WUHU21623XXSP,2013-03-10 07:13:00,
2013-03-10 03:18:00,31.8,21.7,0.00,North,0,0.0,0.0,67,0.00,,,0.00,WUHU21623XXSP,2013-03-10 07:18:00,
2013-03-10 03:23:00,31.8,22.1,0.00,North,0,0.0,0.0,67,0.00,,,0.00,WUHU21623XXSP,2013-03-10 07:23:00,
2013-03-10 03:28:00,31.6,21.9,0.00,North,0,0.0,0.0,67,0.00,,,0.00,WUHU21623XXSP,2013-03-10 07:28:00,
2013-03-10 03:33:00,31.6,21.9,0.00,North,0,0.0,0.0,67,0.00,,,0.00,WUHU21623XXSP,2013-03-10 07:33:00,
2013-03-10 03:38:00,31.6,21.9,0.00,North,0,0.0,0.0,67,0.00,,,0.00,WUHU21623XXSP,2013-03-10 07:38:00,
2013-03-10 03:43:00,31.6,21.9,0.00,North,0,0.0,0.0,67,0.00,,,0.00,WUHU21623XXSP,2013-03-10 07:43:00,
2013-03-10 03:48:00,31.5,21.7,0.00,North,0,0.0,0.0,67,0.00,,,0.00,WUHU21623XXSP,2013-03-10 07:48:00,
2013-03-10 03:53:00,31.3,21.6,0.00,North,0,0.0,0.0,67,0.00,,,0.00,WUHU21623XXSP,2013-03-10 07:53:00,
2013-03-10 03:59:00,31.3,21.6,0.00,North,0,0.0,0.0,67,0.00,,,0.00,WUHU21623XXSP,2013-03-10 07:59:00,
2013-03-10 04:04:00,31.3,21.6,0.00,North,0,0.0,0.0,67,0.00,,,0.00,WUHU21623XXSP,2013-03-10 08:04:00,
2013-03-10 04:09:00,31.3,21.6,0.00,North,0,0.0,0.0,67,0.00,,,0.00,WUHU21623XXSP,2013-03-10 08:09:00,
2013-03-10 04:14:00,31.3,21.6,0.00,North,0,0.0,0.0,67,0.00,,,0.00,WUHU21623XXSP,2013-03-10 08:14:00,
2013-03-10 04:19:00,31.3,21.6,0.00,North,0,0.0,0.0,67,0.00,,,0.00,WUHU21623XXSP,2013-03-10 08:19:00,
2013-03-10 04:24:00,31.3,21.6,0.00,North,0,0.0,0.0,67,0.00,,,0.00,WUHU21623XXSP,2013-03-10 08:24:00,
2013-03-10 04:29:00,30.9,21.2,0.00,North,0,0.0,0.0,67,0.00,,,0.00,WUHU21623XXSP,2013-03-10 08:29:00,
2013-03-10 04:34:00,30.7,21.6,0.00,North,0,0.0,0.0,68,0.00,,,0.00,WUHU21623XXSP,2013-03-10 08:34:00,
2013-03-10 04:39:00,30.7,21.4,0.00,North,0,0.0,0.0,68,0.00,,,0.00,WUHU21623XXSP,2013-03-10 08:39:00,
2013-03-10 04:44:00,30.7,21.4,0.00,North,0,0.0,0.0,68,0.00,,,0.00,WUHU21623XXSP,2013-03-10 08:44:00,
2013-03-10 04:49:00,30.7,21.4,0.00,North,0,0.0,0.0,68,0.00,,,0.00,WUHU21623XXSP,2013-03-10 08:49:00,
2013-03-10 04:54:00,30.7,21.7,0.00,North,0,0.0,0.0,69,0.00,,,0.00,WUHU21623XXSP,2013-03-10 08:54:00,
2013-03-10 04:59:00,30.7,21.7,0.00,North,0,0.0,0.0,69,0.00,,,0.00,WUHU21623XXSP,2013-03-10 08:59:00,
2013-03-10 05:04:00,30.4,21.4,0.00,North,0,0.0,0.0,69,0.00,,,0.00,WUHU21623XXSP,2013-03-10 09:04:00,
2013-03-10 05:09:00,30.4,21.4,0.00,North,0,0.0,0.0,69,0.00,,,0.00,WUHU21623XXSP,2013-03-10 09:09:00,
2013-03-10 05:14:00,30.4,21.4,0.00,North,0,0.0,0.0,69,0.00,,,0.00,WUHU21623XXSP,2013-03-10 09:14:00,
2013-03-10 05:19:00,30.4,21.4,0.00,North,0,0.0,0.0,69,0.00,,,0.00,WUHU21623XXSP,2013-03-10 09:19:00,
2013-03-10 05:24:00,30.4,21.4,0.00,North,0,0.0,0.0,69,0.00,,,0.00,WUHU21623XXSP,2013-03-10 09:24:00,
2013-03-10 05:29:00,30.0,21.4,0.00,North,0,0.0,0.0,69,0.00,,,0.00,WUHU21623XXSP,2013-03-10 09:29:00,
2013-03-10 05:34:00,30.0,21.0,0.00,North,0,0.0,0.0,69,0.00,,,0.00,WUHU21623XXSP,2013-03-10 09:34:00,
2013-03-10 05:39:00,30.0,21.4,0.00,North,0,0.0,0.0,70,0.00,,,0.00,WUHU21623XXSP,2013-03-10 09:39:00,
2013-03-10 05:44:00,30.0,21.4,0.00,North,0,0.0,0.0,70,0.00,,,0.00,WUHU21623XXSP,2013-03-10 09:44:00,
2013-03-10 05:49:00,30.0,21.4,0.00,North,0,0.0,0.0,70,0.00,,,0.00,WUHU21623XXSP,2013-03-10 09:49:00,
2013-03-10 05:54:00,29.8,21.2,0.00,North,0,0.0,0.0,70,0.00,,,0.00,WUHU21623XXSP,2013-03-10 09:54:00,
2013-03-10 05:59:00,29.8,21.2,0.00,North,0,0.0,0.0,70,0.00,,,0.00,WUHU21623XXSP,2013-03-10 09:59:00,
2013-03-10 06:04:00,29.8,21.2,0.00,North,0,0.0,0.0,70,0.00,,,0.00,WUHU21623XXSP,2013-03-10 10:04:00,
2013-03-10 06:09:00,29.8,21.2,0.00,North,0,0.0,0.0,70,0.00,,,0.00,WUHU21623XXSP,2013-03-10 10:09:00,
2013-03-10 06:14:00,29.7,21.2,0.00,North,0,0.0,0.0,70,0.00,,,0.00,WUHU21623XXSP,2013-03-10 10:14:00,
2013-03-10 06:19:00,29.7,21.1,0.00,North,0,0.0,0.0,70,0.00,,,0.00,WUHU21623XXSP,2013-03-10 10:19:00,
2013-03-10 06:24:00,29.5,20.9,0.00,North,0,0.0,0.0,70,0.00,,,0.00,WUHU21623XXSP,2013-03-10 10:24:00,
2013-03-10 06:29:00,29.5,20.9,0.00,North,0,0.0,0.0,70,0.00,,,0.00,WUHU21623XXSP,2013-03-10 10:29:00,
2013-03-10 06:34:00,29.3,20.9,0.00,North,0,0.0,0.0,70,0.00,,,0.00,WUHU21623XXSP,2013-03-10 10:34:00,
2013-03-10 06:39:00,29.3,21.1,0.00,North,0,0.0,0.0,71,0.00,,,0.00,WUHU21623XXSP,2013-03-10 10:39:00,
2013-03-10 06:44:00,29.3,21.1,0.00,North,0,0.0,0.0,71,0.00,,,0.00,WUHU21623XXSP,2013-03-10 10:44:00,
2013-03-10 06:49:00,29.3,21.1,0.00,North,0,0.0,0.0,71,0.00,,,0.00,WUHU21623XXSP,2013-03-10 10:49:00,
2013-03-10 06:54:00,29.3,21.1,0.00,North,0,0.0,0.0,71,0.00,,,0.00,WUHU21623XXSP,2013-03-10 10:54:00,
2013-03-10 06:59:00,29.3,21.1,0.00,North,0,0.0,0.0,71,0.00,,,0.00,WUHU21623XXSP,2013-03-10 10:59:00,
2013-03-10 07:26:00,29.1,21.2,0.00,North,0,0.0,0.0,72,0.00,,,0.00,WUHU21623XXSP,2013-03-10 11:26:00,
2013-03-10 07:31:00,29.1,21.2,0.00,North,0,0.0,0.0,72,0.00,,,0.00,WUHU21623XXSP,2013-03-10 11:31:00,
2013-03-10 07:36:00,29.1,21.2,0.00,North,0,0.0,0.0,72,0.00,,,0.00,WUHU21623XXSP,2013-03-10 11:36:00,
2013-03-10 07:41:00,29.1,21.2,0.00,North,0,0.0,0.0,72,0.00,,,0.00,WUHU21623XXSP,2013-03-10 11:41:00,
2013-03-10 07:54:00,28.9,21.3,0.00,North,0,0.0,0.0,73,0.00,,,0.00,WUHU21623XXSP,2013-03-10 11:54:00,
2013-03-10 07:59:00,29.1,21.3,0.00,North,0,0.0,0.0,73,0.00,,,0.00,WUHU21623XXSP,2013-03-10 11:59:00,
2013-03-10 08:04:00,29.1,21.5,0.00,North,0,0.0,0.0,73,0.00,,,0.00,WUHU21623XXSP,2013-03-10 12:04:00,
2013-03-10 08:09:00,29.1,21.5,0.00,North,0,0.0,0.0,73,0.00,,,0.00,WUHU21623XXSP,2013-03-10 12:09:00,
2013-03-10 08:14:00,29.1,21.5,0.00,North,0,0.0,0.0,73,0.00,,,0.00,WUHU21623XXSP,2013-03-10 12:14:00,
2013-03-10 08:19:00,29.1,21.5,0.00,North,0,0.0,0.0,73,0.00,,,0.00,WUHU21623XXSP,2013-03-10 12:19:00,
2013-03-10 08:24:00,29.3,21.5,0.00,North,0,0.0,0.0,73,0.00,,,0.00,WUHU21623XXSP,2013-03-10 12:24:00,
2013-03-10 08:29:00,29.5,21.8,0.00,North,0,0.0,0.0,73,0.00,,,0.00,WUHU21623XXSP,2013-03-10 12:29:00,
2013-03-10 08:34:00,29.5,21.8,0.00,North,0,0.0,0.0,73,0.00,,,0.00,WUHU21623XXSP,2013-03-10 12:34:00,
2013-03-10 08:39:00,29.5,21.8,0.00,North,0,0.0,0.0,73,0.00,,,0.00,WUHU21623XXSP,2013-03-10 12:39:00,
2013-03-10 08:44:00,29.8,22.5,0.00,North,0,0.0,0.0,74,0.00,,,0.00,WUHU21623XXSP,2013-03-10 12:44:00,
2013-03-10 08:49:00,30.0,22.7,0.00,North,0,0.0,0.0,75,0.00,,,0.00,WUHU21623XXSP,2013-03-10 12:49:00,
2013-03-10 08:54:00,30.4,23.4,0.00,North,0,0.0,0.0,75,0.00,,,0.00,WUHU21623XXSP,2013-03-10 12:54:00,
2013-03-10 09:00:00,30.7,23.7,0.00,North,0,0.0,0.0,75,0.00,,,0.00,WUHU21623XXSP,2013-03-10 13:00:00,
2013-03-10 09:05:00,31.3,24.1,0.00,North,0,0.0,0.0,75,0.00,,,0.00,WUHU21623XXSP,2013-03-10 13:05:00,
2013-03-10 09:10:00,31.6,24.6,0.00,North,0,0.0,0.0,75,0.00,,,0.00,WUHU21623XXSP,2013-03-10 13:10:00,
2013-03-10 09:15:00,32.0,24.6,0.00,North,0,0.0,0.0,75,0.00,,,0.00,WUHU21623XXSP,2013-03-10 13:15:00,
2013-03-10 09:20:00,32.4,25.3,0.00,North,0,0.0,0.0,75,0.00,,,0.00,WUHU21623XXSP,2013-03-10 13:20:00,
2013-03-10 09:25:00,33.1,26.0,0.00,North,0,0.0,0.0,75,0.00,,,0.00,WUHU21623XXSP,2013-03-10 13:25:00,
2013-03-10 09:30:00,33.6,26.4,0.00,North,0,0.0,0.0,75,0.00,,,0.00,WUHU21623XXSP,2013-03-10 13:30:00,
2013-03-10 09:35:00,34.5,27.3,0.00,North,0,0.0,0.0,75,0.00,,,0.00,WUHU21623XXSP,2013-03-10 13:35:00,
2013-03-10 09:40:00,34.9,27.7,0.00,North,0,0.0,0.0,75,0.00,,,0.00,WUHU21623XXSP,2013-03-10 13:40:00,
2013-03-10 09:45:00,36.3,28.8,0.00,North,0,0.0,0.0,74,0.00,,,0.00,WUHU21623XXSP,2013-03-10 13:45:00,
2013-03-10 09:50:00,36.3,29.1,0.00,North,0,0.0,0.0,75,0.00,,,0.00,WUHU21623XXSP,2013-03-10 13:50:00,
2013-03-10 09:55:00,38.3,31.0,0.00,North,0,0.0,0.0,75,0.00,,,0.00,WUHU21623XXSP,2013-03-10 13:55:00,
2013-03-10 10:00:00,39.4,31.2,0.00,North,0,0.0,0.0,74,0.00,,,0.00,WUHU21623XXSP,2013-03-10 14:00:00,
2013-03-10 10:05:00,39.9,32.3,0.00,North,0,0.0,0.0,74,0.00,,,0.00,WUHU21623XXSP,2013-03-10 14:05:00,
2013-03-10 10:10:00,39.9,32.3,0.00,North,0,0.0,0.0,74,0.00,,,0.00,WUHU21623XXSP,2013-03-10 14:10:00,
2013-03-10 10:15:00,39.9,32.3,0.00,North,0,0.0,0.0,74,0.00,,,0.00,WUHU21623XXSP,2013-03-10 14:15:00,
2013-03-10 10:20:00,39.9,32.3,0.00,North,0,0.0,0.0,74,0.00,,,0.00,WUHU21623XXSP,2013-03-10 14:20:00,
2013-03-10 10:25:00,43.7,33.3,0.00,North,0,0.0,0.0,67,0.00,,,0.00,WUHU21623XXSP,2013-03-10 14:25:00,
2013-03-10 10:30:00,44.1,33.8,0.00,North,0,0.0,0.0,65,0.00,,,0.00,WUHU21623XXSP,2013-03-10 14:30:00,
2013-03-10 10:35:00,44.8,33.7,0.00,North,0,0.0,0.0,64,0.00,,,0.00,WUHU21623XXSP,2013-03-10 14:35:00,
2013-03-10 10:40:00,44.8,33.3,0.00,North,0,0.0,0.0,64,0.00,,,0.00,WUHU21623XXSP,2013-03-10 14:40:00,
2013-03-10 10:45:00,45.7,33.8,0.00,North,0,0.0,0.0,63,0.00,,,0.00,WUHU21623XXSP,2013-03-10 14:45:00,
2013-03-10 10:50:00,46.6,34.2,0.00,North,0,0.0,0.0,62,0.00,,,0.00,WUHU21623XXSP,2013-03-10 14:50:00,
2013-03-10 10:55:00,46.9,34.4,0.00,North,0,0.0,0.0,62,0.00,,,0.00,WUHU21623XXSP,2013-03-10 14:55:00,
2013-03-10 11:00:00,47.5,34.0,0.00,North,0,0.0,0.0,60,0.00,,,0.00,WUHU21623XXSP,2013-03-10 15:00:00,
2013-03-10 11:05:00,48.0,34.5,0.00,North,0,0.0,0.0,60,0.00,,,0.00,WUHU21623XXSP,2013-03-10 15:05:00,
2013-03-10 11:10:00,48.4,34.4,0.00,North,0,0.0,0.0,58,0.00,,,0.00,WUHU21623XXSP,2013-03-10 15:10:00,
2013-03-10 11:15:00,49.3,35.0,0.00,North,0,0.0,0.0,57,0.00,,,0.00,WUHU21623XXSP,2013-03-10 15:15:00,
2013-03-10 11:20:00,49.6,35.0,0.00,North,0,0.0,0.0,56,0.00,,,0.00,WUHU21623XXSP,2013-03-10 15:20:00,
2013-03-10 11:25:00,50.2,34.9,0.00,North,0,0.0,0.0,56,0.00,,,0.00,WUHU21623XXSP,2013-03-10 15:25:00,
2013-03-10 11:30:00,50.9,35.5,0.00,North,0,0.0,0.0,56,0.00,,,0.00,WUHU21623XXSP,2013-03-10 15:30:00,
2013-03-10 11:35:00,50.9,35.7,0.00,North,0,0.0,0.0,56,0.00,,,0.00,WUHU21623XXSP,2013-03-10 15:35:00,
2013-03-10 11:40:00,51.6,36.3,0.00,North,0,0.0,0.0,56,0.00,,,0.00,WUHU21623XXSP,2013-03-10 15:40:00,
2013-03-10 11:45:00,52.3,34.7,0.00,North,0,0.0,0.0,52,0.00,,,0.00,WUHU21623XXSP,2013-03-10 15:45:00,
2013-03-10 11:50:00,52.9,35.7,0.00,North,0,0.0,0.0,52,0.00,,,0.00,WUHU21623XXSP,2013-03-10 15:50:00,
2013-03-10 11:55:00,53.2,36.0,0.00,North,0,0.0,0.0,50,0.00,,,0.00,WUHU21623XXSP,2013-03-10 15:55:00,
2013-03-10 12:00:00,54.1,35.9,0.00,North,0,0.0,0.0,50,0.00,,,0.00,WUHU21623XXSP,2013-03-10 16:00:00,
2013-03-10 12:05:00,54.7,36.4,0.00,North,0,0.0,0.0,50,0.00,,,0.00,WUHU21623XXSP,2013-03-10 16:05:00,
2013-03-10 12:10:00,54.7,36.4,0.00,North,0,0.0,0.0,49,0.00,,,0.00,WUHU21623XXSP,2013-03-10 16:10:00,
2013-03-10 12:15:00,55.8,36.3,0.00,North,0,0.0,0.0,48,0.00,,,0.00,WUHU21623XXSP,2013-03-10 16:15:00,
2013-03-10 12:20:00,55.9,36.4,0.00,North,0,0.0,0.0,48,0.00,,,0.00,WUHU21623XXSP,2013-03-10 16:20:00,
2013-03-10 12:25:00,56.5,36.6,0.00,North,0,0.0,0.0,47,0.00,,,0.00,WUHU21623XXSP,2013-03-10 16:25:00,
2013-03-10 12:30:00,56.8,36.2,0.00,North,0,0.0,0.0,46,0.00,,,0.00,WUHU21623XXSP,2013-03-10 16:30:00,
2013-03-10 12:35:00,57.4,36.2,0.00,North,0,0.0,0.0,46,0.00,,,0.00,WUHU21623XXSP,2013-03-10 16:35:00,
2013-03-10 12:40:00,57.7,36.1,0.00,North,0,0.0,0.0,45,0.00,,,0.00,WUHU21623XXSP,2013-03-10 16:40:00,
2013-03-10 12:45:00,58.3,36.4,0.00,North,0,0.0,0.0,45,0.00,,,0.00,WUHU21623XXSP,2013-03-10 16:45:00,
2013-03-10 12:50:00,58.8,36.4,0.00,North,0,0.0,0.0,45,0.00,,,0.00,WUHU21623XXSP,2013-03-10 16:50:00,
2013-03-10 12:55:00,58.8,37.4,0.00,North,0,0.0,0.0,44,0.00,,,0.00,WUHU21623XXSP,2013-03-10 16:55:00,
2013-03-10 13:00:00,59.9,36.7,0.00,North,0,0.0,0.0,42,0.00,,,0.00,WUHU21623XXSP,2013-03-10 17:00:00,
2013-03-10 13:05:00,60.4,36.8,0.00,North,0,0.0,0.0,42,0.00,,,0.00,WUHU21623XXSP,2013-03-10 17:05:00,
2013-03-10 13:10:00,60.6,37.3,0.00,North,0,0.0,0.0,42,0.00,,,0.00,WUHU21623XXSP,2013-03-10 17:10:00,
2013-03-10 13:15:00,61.0,37.6,0.00,North,0,0.0,0.0,42,0.00,,,0.00,WUHU21623XXSP,2013-03-10 17:15:00,
2013-03-10 13:20:00,61.0,37.6,0.00,North,0,0.0,0.0,42,0.00,,,0.00,WUHU21623XXSP,2013-03-10 17:20:00,
2013-03-10 13:25:00,62.4,38.9,0.00,North,0,0.0,0.0,42,0.00,,,0.00,WUHU21623XXSP,2013-03-10 17:25:00,
2013-03-10 13:30:00,63.0,39.4,0.00,North,0,0.0,0.0,42,0.00,,,0.00,WUHU21623XXSP,2013-03-10 17:30:00,
2013-03-10 13:35:00,63.0,39.4,0.00,North,0,0.0,0.0,42,0.00,,,0.00,WUHU21623XXSP,2013-03-10 17:35:00,
2013-03-10 13:40:00,63.0,39.4,0.00,North,0,0.0,0.0,42,0.00,,,0.00,WUHU21623XXSP,2013-03-10 17:40:00,
2013-03-10 13:45:00,63.0,39.4,0.00,North,0,0.0,0.0,42,0.00,,,0.00,WUHU21623XXSP,2013-03-10 17:45:00,
2013-03-10 13:54:00,63.1,39.6,0.00,North,0,0.0,0.0,42,0.00,,,0.00,WUHU21623XXSP,2013-03-10 17:54:00,
2013-03-10 13:59:00,63.1,37.0,0.00,North,0,0.0,0.0,38,0.00,,,0.00,WUHU21623XXSP,2013-03-10 17:59:00,
2013-03-10 14:05:00,63.1,37.0,0.00,North,0,0.0,0.0,38,0.00,,,0.00,WUHU21623XXSP,2013-03-10 18:05:00,
2013-03-10 14:10:00,63.1,37.0,0.00,North,0,0.0,0.0,38,0.00,,,0.00,WUHU21623XXSP,2013-03-10 18:10:00,
2013-03-10 14:15:00,63.7,36.8,0.00,North,0,0.0,0.0,37,0.00,,,0.00,WUHU21623XXSP,2013-03-10 18:15:00,
2013-03-10 14:21:00,63.7,36.0,0.00,North,0,0.0,0.0,36,0.00,,,0.00,WUHU21623XXSP,2013-03-10 18:21:00,
2013-03-10 14:26:00,63.7,36.8,0.00,North,0,0.0,0.0,36,0.00,,,0.00,WUHU21623XXSP,2013-03-10 18:26:00,
2013-03-10 14:31:00,63.7,36.0,0.00,North,0,0.0,0.0,36,0.00,,,0.00,WUHU21623XXSP,2013-03-10 18:31:00,
2013-03-10 14:36:00,64.2,36.5,0.00,North,0,0.0,0.0,36,0.00,,,0.00,WUHU21623XXSP,2013-03-10 18:36:00,
2013-03-10 14:41:00,64.2,36.5,0.00,North,0,0.0,0.0,36,0.00,,,0.00,WUHU21623XXSP,2013-03-10 18:41:00,
2013-03-10 14:46:00,64.6,37.6,0.00,North,0,0.0,0.0,37,0.00,,,0.00,WUHU21623XXSP,2013-03-10 18:46:00,
2013-03-10 14:51:00,64.6,36.8,0.00,North,0,0.0,0.0,36,0.00,,,0.00,WUHU21623XXSP,2013-03-10 18:51:00,
2013-03-10 14:56:00,64.6,36.8,0.00,North,0,0.0,0.0,36,0.00,,,0.00,WUHU21623XXSP,2013-03-10 18:56:00,
2013-03-10 15:01:00,64.6,36.8,0.00,North,0,0.0,0.0,36,0.00,,,0.00,WUHU21623XXSP,2013-03-10 19:01:00,
2013-03-10 15:06:00,64.8,36.3,0.00,North,0,0.0,0.0,35,0.00,,,0.00,WUHU21623XXSP,2013-03-10 19:06:00,
2013-03-10 15:11:00,64.8,35.6,0.00,North,0,0.0,0.0,34,0.00,,,0.00,WUHU21623XXSP,2013-03-10 19:11:00,
2013-03-10 15:16:00,65.1,35.9,0.00,North,0,0.0,0.0,34,0.00,,,0.00,WUHU21623XXSP,2013-03-10 19:16:00,
2013-03-10 15:21:00,65.1,35.9,0.00,North,0,0.0,0.0,34,0.00,,,0.00,WUHU21623XXSP,2013-03-10 19:21:00,
2013-03-10 15:26:00,65.3,35.9,0.00,North,0,0.0,0.0,34,0.00,,,0.00,WUHU21623XXSP,2013-03-10 19:26:00,
2013-03-10 15:31:00,65.3,35.3,0.00,North,0,0.0,0.0,33,0.00,,,0.00,WUHU21623XXSP,2013-03-10 19:31:00,
2013-03-10 15:37:00,65.3,36.0,0.00,North,0,0.0,0.0,33,0.00,,,0.00,WUHU21623XXSP,2013-03-10 19:37:00,
2013-03-10 15:42:00,65.3,35.3,0.00,North,0,0.0,0.0,33,0.00,,,0.00,WUHU21623XXSP,2013-03-10 19:42:00,
2013-03-10 15:47:00,65.3,35.3,0.00,North,0,0.0,0.0,33,0.00,,,0.00,WUHU21623XXSP,2013-03-10 19:47:00,
2013-03-10 15:52:00,65.3,35.3,0.00,North,0,0.0,0.0,33,0.00,,,0.00,WUHU21623XXSP,2013-03-10 19:52:00,
2013-03-10 15:57:00,65.3,35.3,0.00,North,0,0.0,0.0,33,0.00,,,0.00,WUHU21623XXSP,2013-03-10 19:57:00,
2013-03-10 16:02:00,65.7,34.2,0.00,North,0,0.0,0.0,31,0.00,,,0.00,WUHU21623XXSP,2013-03-10 20:02:00,
2013-03-10 16:07:00,65.5,34.2,0.00,North,0,0.0,0.0,32,0.00,,,0.00,WUHU21623XXSP,2013-03-10 20:07:00,
2013-03-10 16:12:00,65.5,34.8,0.00,North,0,0.0,0.0,32,0.00,,,0.00,WUHU21623XXSP,2013-03-10 20:12:00,
2013-03-10 16:17:00,65.5,35.5,0.00,North,0,0.0,0.0,33,0.00,,,0.00,WUHU21623XXSP,2013-03-10 20:17:00,
2013-03-10 16:22:00,65.5,35.5,0.00,North,0,0.0,0.0,31,0.00,,,0.00,WUHU21623XXSP,2013-03-10 20:22:00,
2013-03-10 16:27:00,66.0,34.4,0.00,North,0,0.0,0.0,31,0.00,,,0.00,WUHU21623XXSP,2013-03-10 20:27:00,
2013-03-10 16:32:00,66.0,34.5,0.00,North,0,0.0,0.0,31,0.00,,,0.00,WUHU21623XXSP,2013-03-10 20:32:00,
2013-03-10 16:37:00,66.6,35.0,0.00,North,0,0.0,0.0,31,0.00,,,0.00,WUHU21623XXSP,2013-03-10 20:37:00,
2013-03-10 16:42:00,66.6,35.0,0.00,North,0,0.0,0.0,31,0.00,,,0.00,WUHU21623XXSP,2013-03-10 20:42:00,
2013-03-10 16:47:00,66.9,36.0,0.00,North,0,0.0,0.0,32,0.00,,,0.00,WUHU21623XXSP,2013-03-10 20:47:00,
2013-03-10 16:52:00,66.9,36.0,0.00,North,0,0.0,0.0,31,0.00,,,0.00,WUHU21623XXSP,2013-03-10 20:52:00,
2013-03-10 16:57:00,67.3,35.6,0.00,North,0,0.0,0.0,31,0.00,,,0.00,WUHU21623XXSP,2013-03-10 20:57:00,
2013-03-10 17:02:00,67.3,35.6,0.00,North,0,0.0,0.0,31,0.00,,,0.00,WUHU21623XXSP,2013-03-10 21:02:00,
2013-03-10 17:07:00,67.1,35.4,0.00,North,0,0.0,0.0,31,0.00,,,0.00,WUHU21623XXSP,2013-03-10 21:07:00,
2013-03-10 17:12:00,67.1,35.4,0.00,North,0,0.0,0.0,31,0.00,,,0.00,WUHU21623XXSP,2013-03-10 21:12:00,
2013-03-10 17:17:00,67.1,35.4,0.00,North,0,0.0,0.0,31,0.00,,,0.00,WUHU21623XXSP,2013-03-10 21:17:00,
2013-03-10 17:22:00,66.6,35.0,0.00,North,0,0.0,0.0,31,0.00,,,0.00,WUHU21623XXSP,2013-03-10 21:22:00,
2013-03-10 17:27:00,66.6,35.0,0.00,North,0,0.0,0.0,31,0.00,,,0.00,WUHU21623XXSP,2013-03-10 21:27:00,
2013-03-10 17:32:00,66.6,35.0,0.00,North,0,0.0,0.0,31,0.00,,,0.00,WUHU21623XXSP,2013-03-10 21:32:00,
2013-03-10 17:37:00,66.6,34.3,0.00,North,0,0.0,0.0,30,0.00,,,0.00,WUHU21623XXSP,2013-03-10 21:37:00,
2013-03-10 17:42:00,68.2,34.3,0.00,North,0,0.0,0.0,30,0.00,,,0.00,WUHU21623XXSP,2013-03-10 21:42:00,
2013-03-10 17:47:00,67.8,35.3,0.00,North,0,0.0,0.0,30,0.00,,,0.00,WUHU21623XXSP,2013-03-10 21:47:00,
2013-03-10 17:52:00,66.7,34.7,0.00,North,0,0.0,0.0,30,0.00,,,0.00,WUHU21623XXSP,2013-03-10 21:52:00,
2013-03-10 17:57:00,66.7,34.4,0.00,North,0,0.0,0.0,30,0.00,,,0.00,WUHU21623XXSP,2013-03-10 21:57:00,
2013-03-10 18:02:00,66.7,34.4,0.00,North,0,0.0,0.0,30,0.00,,,0.00,WUHU21623XXSP,2013-03-10 22:02:00,
2013-03-10 18:07:00,66.7,34.4,0.00,North,0,0.0,0.0,30,0.00,,,0.00,WUHU21623XXSP,2013-03-10 22:07:00,
2013-03-10 18:12:00,68.2,35.6,0.00,North,0,0.0,0.0,30,0.00,,,0.00,WUHU21623XXSP,2013-03-10 22:12:00,
2013-03-10 18:17:00,68.2,35.6,0.00,North,0,0.0,0.0,30,0.00,,,0.00,WUHU21623XXSP,2013-03-10 22:17:00,
2013-03-10 18:23:00,68.2,35.6,0.00,North,0,0.0,0.0,30,0.00,,,0.00,WUHU21623XXSP,2013-03-10 22:23:00,
2013-03-10 18:28:00,64.6,33.2,0.00,North,0,0.0,0.0,31,0.00,,,0.00,WUHU21623XXSP,2013-03-10 22:28:00,
2013-03-10 18:33:00,63.7,33.3,0.00,North,0,0.0,0.0,32,0.00,,,0.00,WUHU21623XXSP,2013-03-10 22:33:00,
2013-03-10 18:38:00,63.7,33.9,0.00,North,0,0.0,0.0,33,0.00,,,0.00,WUHU21623XXSP,2013-03-10 22:38:00,
2013-03-10 18:43:00,63.0,33.2,0.00,North,0,0.0,0.0,33,0.00,,,0.00,WUHU21623XXSP,2013-03-10 22:43:00,
2013-03-10 18:48:00,62.1,32.6,0.00,North,0,0.0,0.0,34,0.00,,,0.00,WUHU21623XXSP,2013-03-10 22:48:00,
2013-03-10 18:53:00,61.7,32.8,0.00,North,0,0.0,0.0,34,0.00,,,0.00,WUHU21623XXSP,2013-03-10 22:53:00,
2013-03-10 18:58:00,61.5,33.4,0.00,North,0,0.0,0.0,35,0.00,,,0.00,WUHU21623XXSP,2013-03-10 22:58:00,
2013-03-10 19:03:00,60.6,32.9,0.00,North,0,0.0,0.0,36,0.00,,,0.00,WUHU21623XXSP,2013-03-10 23:03:00,
2013-03-10 19:08:00,60.6,33.3,0.00,North,0,0.0,0.0,36,0.00,,,0.00,WUHU21623XXSP,2013-03-10 23:08:00,
2013-03-10 19:13:00,60.6,33.3,0.00,North,0,0.0,0.0,36,0.00,,,0.00,WUHU21623XXSP,2013-03-10 23:13:00,
2013-03-10 19:18:00,60.6,33.3,0.00,North,0,0.0,0.0,36,0.00,,,0.00,WUHU21623XXSP,2013-03-10 23:18:00,
2013-03-10 19:23:00,60.6,33.3,0.00,North,0,0.0,0.0,36,0.00,,,0.00,WUHU21623XXSP,2013-03-10 23:23:00,
2013-03-10 19:28:00,60.6,33.3,0.00,North,0,0.0,0.0,36,0.00,,,0.00,WUHU21623XXSP,2013-03-10 23:28:00,
2013-03-10 19:47:00,56.8,33.3,0.00,North,0,0.0,0.0,42,0.00,,,0.00,WUHU21623XXSP,2013-03-10 23:47:00,
2013-03-10 19:52:00,56.8,33.9,0.00,North,0,0.0,0.0,42,0.00,,,0.00,WUHU21623XXSP,2013-03-10 23:52:00,
2013-03-10 19:57:00,56.8,33.9,0.00,North,0,0.0,0.0,42,0.00,,,0.00,WUHU21623XXSP,2013-03-10 23:57:00,
2013-03-10 20:02:00,56.8,33.9,0.00,North,0,0.0,0.0,42,0.00,,,0.00,WUHU21623XXSP,2013-03-11 00:02:00,
2013-03-10 21:43:00,49.3,31.9,0.00,North,0,0.0,0.0,51,0.00,,,0.00,WUHU21623XXSP,2013-03-11 01:43:00,
2013-03-10 21:48:00,49.3,31.9,0.00,North,0,0.0,0.0,51,0.00,,,0.00,WUHU21623XXSP,2013-03-11 01:48:00,
2013-03-10 21:53:00,48.9,31.6,0.00,North,0,0.0,0.0,51,0.00,,,0.00,WUHU21623XXSP,2013-03-11 01:53:00,
2013-03-10 21:58:00,48.9,31.6,0.00,North,0,0.0,0.0,51,0.00,,,0.00,WUHU21623XXSP,2013-03-11 01:58:00,
2013-03-10 22:03:00,48.9,31.6,0.00,North,0,0.0,0.0,51,0.00,,,0.00,WUHU21623XXSP,2013-03-11 02:03:00,
2013-03-10 22:08:00,48.9,31.6,0.00,North,0,0.0,0.0,51,0.00,,,0.00,WUHU21623XXSP,2013-03-11 02:08:00,